Stations météo

Publicité
Chartres, France (7143): Température de l'air & dewpoint: 14.09.2019 05:00:00 - 20.09.2019 05:00:00 (CEST)Chartres, France (7143): Température de l'air 5cm: 14.09.2019 05:00:00 - 20.09.2019 05:00:00 (CEST)Chartres, France (7143): Température de l'air -20cm & Température de l'air -100cm: 14.09.2019 05:00:00 - 20.09.2019 05:00:00 (CEST)Chartres, France (7143): Vitesse du vent & gusts: 14.09.2019 05:00:00 - 20.09.2019 05:00:00 (CEST)Chartres, France (7143): Direction du vent: 14.09.2019 05:00:00 - 20.09.2019 05:00:00 (CEST)Chartres, France (7143): reduced air pressure: 14.09.2019 05:00:00 - 20.09.2019 05:00:00 (CEST)Chartres, France (7143): visibility: 14.09.2019 05:00:00 - 20.09.2019 05:00:00 (CEST)Chartres, France (7143): Ensoleillement: 14.09.2019 05:00:00 - 20.09.2019 05:00:00 (CEST)Chartres, France (7143): Quantités de précipitations: 14.09.2019 05:00:00 - 20.09.2019 05:00:00 (CEST)
Date & Time tt [°C] td [°C] tt 5cm [°C] tt -20cm [°C] tt -100cm [°C] ff [km/h] ff [knt] fx [km/h] fx [knt] dd ppp [hPa] vv [km] sd [min] rr [mm]
20.09.2019 05:00:00 9,0 2,8 6,9 16,9 17,8 11 6 19 10 NE 1025,4 20 0 0,0
20.09.2019 04:00:00 9,1 3,1 7,4 17,0 17,8 8 4 17 9 NE 1025,8 20 0 0,0
20.09.2019 03:00:00 9,6 3,6 7,2 17,1 17,8 8 5 15 8 NE 1026,2 20 0 0,0
20.09.2019 02:00:00 9,9 3,8 7,7 17,3 17,8 2 1 16 8 ENE 1026,4 20 0 0,0
20.09.2019 01:00:00 10,0 4,6 7,6 17,3 17,8 5 3 11 6 NE 1026,8 20 0 0,0
20.09.2019 00:00:00 11,6 4,3 9,8 17,5 17,8 6 3 17 9 NE 1027,1 20 0 0,0
19.09.2019 23:00:00 12,4 3,6 9,4 17,6 17,8 11 6 16 9 NE 1026,9 20 0 0,0
19.09.2019 22:00:00 12,8 2,6 8,5 17,6 17,8 6 3 13 7 NE 1026,9 20 0 0,0
19.09.2019 21:00:00 14,9 2,4 13,4 17,7 17,8 7 4 15 8 NE 1026,6 20 0 0,0
19.09.2019 20:00:00 16,7 2,3 15,6 17,7 17,8 9 5 30 16 NE 1026,0 20 35 0,0
19.09.2019 19:00:00 18,7 2,5 19,9 17,7 17,8 16 8 34 19 NE 1025,6 20 60 0,0
19.09.2019 18:00:00 19,7 3,8 21,5 17,5 17,8 15 8 34 19 NE 1025,6 20 60 0,0
19.09.2019 17:00:00 19,9 4,4 22,6 17,4 17,8 15 8 37 20 ENE 1025,6 20 60 0,0
19.09.2019 16:00:00 19,8 4,7 23,2 17,2 17,8 16 9 35 19 ENE 1026,2 20 60 0,0
19.09.2019 15:00:00 18,9 4,6 22,2 17,0 17,8 19 10 38 20 NE 1026,7 20 60 0,0
19.09.2019 14:00:00 18,6 5,1 22,1 16,8 17,8 15 8 43 23 ENE 1027,4 20 60 0,0
19.09.2019 13:00:00 17,7 5,0 20,7 16,6 17,8 19 11 36 20 ENE 1027,7 20 60 0,0
19.09.2019 12:00:00 16,8 5,7 19,8 16,6 17,9 18 10 38 21 NE 1028,2 19 60 0,0
19.09.2019 11:00:00 15,6 5,8 12,9 16,7 17,8 16 8 29 16 ENE 1028,2 20 60 0,0
19.09.2019 10:00:00 12,9 6,5 10,4 16,8 17,8 13 7 30 16 NE 1028,2 20 60 0,0
19.09.2019 09:00:00 10,2 6,5 8,3 16,9 17,9 11 6 19 10 NNE 1027,8 20 60 0,0
19.09.2019 08:00:00 8,7 6,0 7,2 17,0 17,8 10 5 17 9 NNE 1027,6 20 0 0,0
19.09.2019 07:00:00 8,8 5,9 7,2 17,1 17,9 8 4 14 8 NNE 1027,4 20 0 0,0
19.09.2019 06:00:00 9,2 6,1 7,7 17,2 17,9 8 4 18 10 N 1027,2 20 0 0,0
19.09.2019 05:00:00 9,9 6,1 9,1 17,3 17,9 11 6 21 11 NNE 1027,1 20 0 0,0
19.09.2019 04:00:00 10,6 6,2 9,6 17,4 17,9 12 6 21 11 NNE 1027,2 20 0 0,0
19.09.2019 03:00:00 10,9 5,6 9,8 17,5 17,9 11 6 21 12 NNE 1027,1 20 0 0,0
19.09.2019 02:00:00 11,1 4,8 10,0 17,7 17,9 8 4 21 11 NNE 1027,3 20 0 0,0
19.09.2019 01:00:00 12,0 4,2 10,7 17,8 17,9 13 7 22 12 NNE 1027,1 20 0 0,0
19.09.2019 00:00:00 12,2 4,4 10,7 17,9 17,9 9 5 15 8 NNE 1026,8 20 0 0,0
18.09.2019 23:00:00 13,2 4,1 11,9 18,0 17,9 10 5 20 11 NNE 1026,5 20 0 0,0
18.09.2019 22:00:00 13,8 3,8 12,6 18,1 17,9 9 5 22 12 NNE 1025,9 20 0 0,0
18.09.2019 21:00:00 15,2 3,6 14,3 18,2 17,9 13 7 25 14 NNE 1025,4 20 0 0,0
18.09.2019 20:00:00 16,6 3,6 15,8 18,1 17,9 14 8 35 19 NE 1024,7 20 35 0,0
18.09.2019 19:00:00 18,4 3,4 20,0 18,1 17,9 15 8 38 21 NE 1024,3 20 60 0,0
18.09.2019 18:00:00 19,4 2,7 21,6 18,0 17,9 18 10 38 21 NE 1024,1 20 60 0,0
18.09.2019 17:00:00 19,6 3,3 23,3 17,9 17,9 19 10 42 23 NE 1024,2 20 60 0,0
18.09.2019 16:00:00 19,7 3,8 23,6 17,8 17,9 18 10 39 21 NNE 1024,5 20 60 0,0
18.09.2019 15:00:00 19,1 4,8 22,5 17,6 17,9 18 10 39 21 NNE 1024,6 20 60 0,0
18.09.2019 14:00:00 18,2 3,6 22,3 17,4 17,9 22 12 43 23 NNE 1025,2 20 60 0,0
18.09.2019 13:00:00 17,4 2,9 21,3 17,4 17,9 19 11 42 23 NE 1025,2 20 60 0,0
18.09.2019 12:00:00 16,5 3,2 19,4 17,4 17,9 17 9 43 23 NE 1025,4 19 60 0,0
18.09.2019 11:00:00 15,0 3,2 12,7 17,4 17,8 16 9 36 19 NE 1025,7 20 60 0,0
18.09.2019 10:00:00 13,0 5,2 10,3 17,6 17,9 14 8 36 19 ENE 1025,7 20 60 0,0
18.09.2019 09:00:00 10,2 5,6 8,5 17,8 17,9 13 7 23 12 NNE 1025,4 20 55 0,0
18.09.2019 08:00:00 8,9 5,3 7,6 17,9 17,9 11 6 20 11 NNE 1024,6 20 0 0,0
18.09.2019 07:00:00 8,7 5,3 7,7 18,1 17,9 10 5 19 10 NNE 1024,4 20 0 0,0
18.09.2019 06:00:00 9,4 5,8 8,5 18,2 17,9 10 6 19 10 NNE 1024,5 20 0 0,0
18.09.2019 05:00:00 10,2 6,3 9,2 18,3 17,9 11 6 20 11 NNE 1024,6 20 0 0,0
18.09.2019 04:00:00 10,8 6,7 9,9 18,4 17,9 11 6 19 10 NNE 1024,4 20 0 0,0
18.09.2019 03:00:00 11,8 7,3 10,7 18,6 17,9 11 6 22 12 NE 1024,1 20 0 0,0
18.09.2019 02:00:00 12,6 7,7 11,8 18,7 17,9 15 8 29 15 NNE 1023,8 20 0 0,0
18.09.2019 01:00:00 13,4 7,8 12,6 18,8 17,8 14 7 28 15 NNE 1023,7 20 0 0,0
18.09.2019 00:00:00 14,6 8,3 13,8 19,0 17,9 14 8 34 18 NE 1023,2 20 0 0,0
17.09.2019 23:00:00 15,4 8,6 14,3 19,1 17,8 13 7 23 12 NNE 1022,9 20 0 0,0
17.09.2019 22:00:00 16,1 8,8 15,0 19,2 17,9 10 6 17 9 NNE 1022,2 20 0 0,0
17.09.2019 21:00:00 17,4 8,8 15,6 19,2 17,9 6 3 14 8 NE 1021,6 20 0 0,0
17.09.2019 20:00:00 19,4 9,0 18,3 19,2 17,8 8 4 25 14 NE 1021,1 20 37 0,0
17.09.2019 19:00:00 21,4 9,0 23,4 19,2 17,9 16 9 28 15 NNE 1020,8 20 60 0,0
17.09.2019 18:00:00 22,4 9,5 25,3 19,1 17,8 13 7 29 16 NNE 1020,7 20 60 0,0
17.09.2019 17:00:00 22,6 9,7 23,1 19,0 17,8 14 7 34 18 N 1020,9 20 38 0,0
17.09.2019 16:00:00 21,6 10,4 23,1 18,9 17,8 14 8 29 16 NNE 1021,4 20 18 0,0
17.09.2019 15:00:00 21,6 10,7 23,2 18,8 17,8 13 7 29 16 NNE 1021,5 20 11 0,0
17.09.2019 14:00:00 21,9 10,7 21,9 18,7 17,8 10 6 21 12 NE 1021,6 20 12 0,0
17.09.2019 13:00:00 20,6 12,8 23,8 18,6 17,9 11 6 24 13 NE 1022,1 20 0 0,0
17.09.2019 12:00:00 19,8 14,2 20,2 18,6 17,9 11 6 24 13 NE 1022,3 20 13 0,0
17.09.2019 11:00:00 18,0 14,7 18,7 18,5 17,8 10 5 18 10 NNE 1022,5 19 0 0,0
17.09.2019 10:00:00 17,1 14,7 16,8 18,6 17,9 8 4 16 9 NNE 1022,2 14 0 0,0
17.09.2019 09:00:00 16,0 14,7 14,7 18,7 17,9 11 6 16 9 N 1022,0 13 0 0,0
17.09.2019 08:00:00 14,9 14,1 12,3 18,7 17,8 5 3 8 5 N 1021,8 10 0 0,0
17.09.2019 07:00:00 14,3 13,7 12,8 18,8 17,8 6 3 10 5 N 1021,4 10 0 0,0
17.09.2019 06:00:00 15,3 14,0 14,9 18,9 17,9 7 4 17 9 N 1021,1 11 0 0,0
17.09.2019 05:00:00 15,4 14,3 15,1 18,9 17,9 9 5 23 12 N 1021,3 10 0 0,0
17.09.2019 04:00:00 15,2 14,1 14,5 19,0 17,8 10 5 24 13 N 1021,4 11 0 0,0
17.09.2019 03:00:00 14,8 13,8 13,5 19,1 17,9 12 7 22 12 N 1021,6 13 0 0,0
17.09.2019 02:00:00 14,8 13,7 13,8 19,2 17,8 9 5 20 11 N 1021,6 18 0 0,0
17.09.2019 01:00:00 15,2 13,6 14,1 19,3 17,8 10 5 18 10 N 1021,6 20 0 0,0
17.09.2019 00:00:00 16,1 13,9 14,9 19,4 17,9 11 6 20 11 N 1021,7 20 0 0,0
16.09.2019 23:00:00 17,1 14,2 16,0 19,5 17,8 13 7 22 12 N 1021,4 20 0 0,0
16.09.2019 22:00:00 18,3 14,2 17,2 19,5 17,8 12 7 22 12 N 1021,2 20 0 0,0
16.09.2019 21:00:00 20,4 14,1 19,0 19,5 17,9 8 5 26 14 N 1020,7 20 0 0,0
16.09.2019 20:00:00 22,8 14,4 22,2 19,5 17,9 15 8 32 18 N 1019,8 20 32 0,0
16.09.2019 19:00:00 25,4 11,9 27,0 19,4 17,8 12 6 23 12 NNE 1019,2 20 60 0,0
16.09.2019 18:00:00 26,7 9,5 29,6 19,2 17,8 11 6 22 12 N 1019,2 20 58 0,0
16.09.2019 17:00:00 27,4 6,2 31,5 19,0 17,8 10 6 21 12 N 1019,5 20 60 0,0
16.09.2019 16:00:00 27,4 -0,7 33,2 18,8 17,8 9 5 20 11 N 1019,9 20 60 0,0
16.09.2019 15:00:00 26,5 1,7 32,1 18,5 17,8 9 5 19 11 NNW 1020,5 20 60 0,0
16.09.2019 14:00:00 25,0 7,2 32,5 18,3 17,8 10 5 23 13 N 1021,1 20 60 0,0
16.09.2019 13:00:00 23,9 10,6 30,5 18,1 17,8 8 4 18 10 N 1021,7 20 60 0,0
16.09.2019 12:00:00 21,3 10,5 28,9 18,0 17,8 9 5 19 11 N 1022,2 20 60 0,0
16.09.2019 11:00:00 19,6 9,5 17,3 18,1 17,8 5 3 18 10 NNW 1022,2 20 60 0,0
16.09.2019 10:00:00 17,3 10,4 13,8 18,1 17,8 8 4 14 8 N 1022,3 20 60 0,0
16.09.2019 09:00:00 13,7 10,9 11,5 18,3 17,8 4 2 11 6 NNW 1022,3 19 52 0,0
16.09.2019 08:00:00 12,4 10,8 9,6 18,4 17,8 8 4 13 7 N 1022,0 14 5 0,0
16.09.2019 07:00:00 11,8 10,5 8,5 18,6 17,9 6 3 10 5 N 1021,8 17 0 0,0
16.09.2019 06:00:00 11,9 10,6 8,2 18,7 17,8 3 2 6 3 NNW 1021,7 19 0 0,0
16.09.2019 05:00:00 13,2 11,1 10,3 18,8 17,8 4 2 13 7 N 1022,3 20 0 0,0
16.09.2019 04:00:00 14,1 11,6 10,8 18,9 17,8 7 4 13 7 N 1022,6 17 0 0,0
16.09.2019 03:00:00 14,5 11,5 11,4 19,0 17,8 4 2 14 7 N 1022,6 17 0 0,0
16.09.2019 02:00:00 15,5 11,7 13,8 19,2 17,8 6 4 13 7 N 1022,9 20 0 0,0
16.09.2019 01:00:00 16,5 11,4 13,3 19,3 17,8 9 5 13 7 N 1023,0 20 0 0,0
16.09.2019 00:00:00 17,5 10,4 12,3 19,4 17,8 6 4 12 6 N 1022,8 20 0 0,0
15.09.2019 23:00:00 17,5 9,1 12,8 19,5 17,8 3 2 7 4 NNW 1022,8 20 0 0,0
15.09.2019 22:00:00 19,5 9,7 14,6 19,6 17,9 5 3 9 5 N 1022,3 20 0 0,0
15.09.2019 21:00:00 21,2 9,1 15,7 19,6 17,8 5 3 7 4 NNE 1022,1 20 0 0,0
15.09.2019 20:00:00 24,3 8,7 22,6 19,6 17,8 6 3 14 8 NNE 1021,6 20 36 0,0
15.09.2019 19:00:00 27,1 9,0 30,1 19,4 17,8 8 4 13 7 NNE 1021,3 19 60 0,0
15.09.2019 18:00:00 28,2 9,0 32,4 19,3 17,8 5 3 15 8 N 1021,4 18 60 0,0
15.09.2019 17:00:00 27,9 8,2 33,9 19,0 17,8 10 5 21 12 N 1021,9 20 60 0,0
15.09.2019 16:00:00 27,8 10,0 34,0 18,7 17,8 5 3 18 10 NE 1022,5 18 60 0,0
15.09.2019 15:00:00 26,9 10,6 32,4 18,5 17,8 4 2 16 9 NNW 1023,2 19 60 0,0
15.09.2019 14:00:00 26,2 10,4 32,8 18,2 17,8 5 3 16 9 N 1023,9 20 60 0,0
15.09.2019 13:00:00 25,4 11,6 30,4 18,0 17,8 5 3 18 10 N 1024,6 19 60 0,0
15.09.2019 12:00:00 23,7 11,4 29,0 17,9 17,8 11 6 19 10 NNE 1025,1 19 60 0,0
15.09.2019 11:00:00 21,7 11,7 18,1 18,0 17,8 6 4 12 6 NE 1025,6 20 60 0,0
15.09.2019 10:00:00 18,4 11,7 14,9 18,0 17,8 6 3 8 4 NNE 1025,4 19 60 0,0
15.09.2019 09:00:00 14,4 11,2 10,5 18,2 17,8 4 2 7 4 N 1025,4 17 60 0,0
15.09.2019 08:00:00 11,4 9,8 7,6 18,3 17,8 4 2 8 4 N 1025,7 14 4 0,0
15.09.2019 07:00:00 10,6 8,5 7,7 18,4 17,8 0 0 6 4 N 1025,5 13 0 0,0
15.09.2019 06:00:00 11,6 10,0 7,6 18,6 17,8 3 2 6 3 NNW 1025,4 15 0 0,0
15.09.2019 05:00:00 11,5 9,1 8,4 18,7 17,8 2 1 9 5 NNW 1025,9 15 0 0,0
15.09.2019 04:00:00 12,2 10,1 8,7 18,8 17,8 3 2 5 3 NNW 1025,8 17 0 0,0
15.09.2019 03:00:00 13,4 10,9 9,3 19,0 17,8 4 2 6 3 N 1026,1 18 0 0,0
15.09.2019 02:00:00 14,1 10,3 10,3 19,1 17,8 2 1 5 3 N 1026,4 18 0 0,0
15.09.2019 01:00:00 15,0 11,2 10,7 19,3 17,8 3 2 6 3 N 1026,7 19 0 0,0
15.09.2019 00:00:00 14,7 10,7 11,4 19,4 17,8 2 1 4 2 N 1027,0 18 0 0,0
14.09.2019 23:00:00 17,5 11,5 13,9 19,5 17,8 5 3 8 4 NNE 1026,9 20 0 0,0
14.09.2019 22:00:00 18,6 12,1 14,4 19,6 17,8 4 2 7 4 NNE 1026,9 20 0 0,0
14.09.2019 21:00:00 20,5 11,9 18,3 19,6 17,8 6 3 9 5 NNE 1026,8 20 0 0,0
14.09.2019 20:00:00 23,2 12,2 21,9 19,6 17,8 4 2 16 9 NE 1026,3 19 34 0,0
14.09.2019 19:00:00 25,3 12,2 26,3 19,5 17,8 10 5 19 11 ENE 1026,2 18 60 0,0
14.09.2019 18:00:00 25,7 11,8 28,9 19,3 17,8 9 5 22 12 ENE 1026,5 18 60 0,0
14.09.2019 17:00:00 25,9 13,4 30,2 19,1 17,8 12 7 22 12 NE 1026,9 20 60 0,0
14.09.2019 16:00:00 25,6 13,1 30,1 18,9 17,8 11 6 26 14 ENE 1027,4 18 60 0,0
14.09.2019 15:00:00 25,3 13,2 28,9 18,7 17,8 11 6 26 14 ENE 1028,0 18 60 0,0
14.09.2019 14:00:00 24,8 14,0 29,0 18,4 17,8 13 7 29 16 E 1028,6 15 60 0,0
14.09.2019 13:00:00 22,7 14,3 26,9 18,3 17,8 11 6 24 13 ENE 1029,2 19 60 0,0
14.09.2019 12:00:00 21,4 14,5 24,7 18,2 17,8 11 6 22 12 E 1030,0 14 58 0,0
14.09.2019 11:00:00 19,2 14,0 17,7 18,3 17,8 9 5 21 11 NE 1030,5 16 60 0,0
14.09.2019 10:00:00 16,4 13,5 14,2 18,3 17,8 10 5 20 11 NE 1030,9 14 60 0,0
14.09.2019 09:00:00 13,6 12,3 12,6 18,4 17,8 13 7 20 11 NNE 1031,3 10 50 0,0
14.09.2019 08:00:00 12,7 11,9 12,1 18,6 17,8 11 6 22 12 NNE 1031,3 9 0 0,0
14.09.2019 07:00:00 13,1 12,3 12,1 18,7 17,8 7 4 11 6 NNE 1030,8 9 0 0,0
14.09.2019 06:00:00 13,8 13,0 12,9 18,7 17,7 7 4 16 9 NNE 1030,8 9 0 0,2
14.09.2019 05:00:00 14,2 13,4 13,1 18,9 17,8 9 5 13 7 NNE 1031,3 9 0 0,0

tt = Température de l'air
td = dewpoint
tt 5cm = Température de l'air 5cm
tt -20cm = Température de l'air -20cm
tt -100cm = Température de l'air -100cm
ff = Vitesse du vent
fx = gusts
dd = Direction du vent
ppp = reduced air pressure
vv = visibility
sd = Ensoleillement
rr = Quantités de précipitations

stations d'obs. à proximité